Find OneWeb SL0053

NORAD ID: 45157 Int'l Des: 2020-008 Owner: ONEWEB Country: UK Constellation: oneweb operational
LEOCIRCULARPOLARONEWEB_TYPE

Live Position

Loading 3D Globe...

About OneWeb SL0053

Description loading...

Upcoming Passes

Passes for default location (London). Set your location on the main map for personalized predictions.

Altitude History

Loading altitude history...

Two-Line Element Set

1 45157U 20008AC 26112.23051934 -.00000664 00000-0 -19379-2 0 9990
2 45157 87.8844 47.4185 0001937 94.6414 265.4935 13.10373006300584
Epoch: Apr 22, 2026 • Age: 13 hours

Current Status

Altitude 1223.6 km
Velocity 7.24 km/s
Sub-Earth Point 16.27°N, 79.54°W
Launch Date Feb 6, 2020
Age 6.2 years
Type internet

Technical Details

Classification Payload
Mass 148.00 kg
Dry Mass 140.00 kg
Total Mass 148.00 kg
Length 1.30 m
Diameter 1.00 m
Span 5.00 m
Shape Trapezoid+2 pan
Manufacturer ONEWUS
Bus Type ARROW
Phase Status In Orbit
Owner/State ONEWEB/UK

Most Searched